DW0427 Durrow IE current weather conditions

sailwx.info

Wind from 328

Air temperature 15.0° C
Dewpoint 11.9° C

Last reported at 2020-May-26 22:03 UTC.
Time now 2020-May-26 23:11 UTC

Location: N 52°51' W 007°23'.
View on Google Maps.

See reports from other nearby stations

  
Tides and Currents Weather Stations Pressure Air Temp Water Temp Dewpoint Dewpoint Depression Visibility Wind Speed Wind Dir Waves Ship Positions
date/time (UTC)wind fromknots sea level pressurealtimeterstation pressurevisibilityair tempwater tempwave heightnotes
2020-May-26 22:03 328 15.0
2020-May-26 21:59 329 0 gusting 1 15.6
2020-May-26 21:53 329 0 gusting 1 15.6
2020-May-26 21:49 329 15.6
2020-May-26 21:43 329 15.6
2020-May-26 21:39 15.6
2020-May-26 21:33 15.6
2020-May-26 21:29 15.6
2020-May-26 21:23 16.1
2020-May-26 21:19 16.1
2020-May-26 21:13 329 0 gusting 1 16.1
2020-May-26 21:09 329 0 gusting 1 16.7
2020-May-26 21:03 329 0 gusting 1 16.7
2020-May-26 20:59 329 0 gusting 1 16.7
2020-May-26 20:53 329 16.7
2020-May-26 20:49 329 0 gusting 0 16.7
2020-May-26 20:43 329 0 gusting 1 17.2
2020-May-26 20:39 329 0 gusting 1 17.2
2020-May-26 20:33 329 0 gusting 1 17.2
2020-May-26 20:29 329 0 gusting 1 17.8
2020-May-26 20:23 329 0 gusting 2 17.8
2020-May-26 20:19 329 0 gusting 2 17.8
2020-May-26 20:13 329 0 gusting 2 17.8
2020-May-26 20:09 329 0 gusting 2 17.8
2020-May-26 20:03 329 1 gusting 2 18.3
2020-May-26 19:59 328 1 gusting 2 18.3
2020-May-26 19:53 329 1 gusting 2 18.3
2020-May-26 19:49 329 1 gusting 2 18.3
2020-May-26 19:43 328 1 gusting 2 18.3
2020-May-26 19:39 328 1 gusting 3 18.3
2020-May-26 19:33 328 1 gusting 3 18.3
2020-May-26 19:29 328 2 gusting 3 18.3
2020-May-26 19:23 329 2 gusting 3 18.3
2020-May-26 19:19 329 2 gusting 3 18.3
2020-May-26 19:13 330 2 gusting 3 18.3
2020-May-26 19:09 331 1 gusting 3 18.3
2020-May-26 19:03 332 1 gusting 4 18.9
2020-May-26 18:59 333 1 gusting 4 18.9
2020-May-26 18:53 333 1 gusting 3 18.9
2020-May-26 18:49 336 1 gusting 4 18.9
2020-May-26 18:43 345 1 gusting 4 18.9
2020-May-26 18:39 346 1 gusting 3 18.9
2020-May-26 18:33 336 2 gusting 5 18.9
2020-May-26 18:29 329 2 gusting 6 18.9
2020-May-26 18:23 330 2 gusting 6 18.9
2020-May-26 18:19 337 1 gusting 5 18.9
2020-May-26 18:13 335 1 gusting 5 18.9
2020-May-26 18:09 331 2 gusting 5 18.9
2020-May-26 18:03 329 2 gusting 4 18.9
2020-May-26 17:59 325 2 gusting 5 18.9
2020-May-26 17:53 325 2 gusting 5 18.9
2020-May-26 17:29 328 4 gusting 7 19.4
2020-May-26 17:23 324 3 gusting 7 19.4
2020-May-26 17:19 323 3 gusting 7 19.4
2020-May-26 17:13 340 2 gusting 6 20.0
2020-May-26 17:09 341 2 gusting 5 20.0
2020-May-26 17:03 309 2 gusting 6 20.0
2020-May-26 16:59 309 2 gusting 6 20.0
2020-May-26 16:53 326 2 gusting 5 20.6
2020-May-26 16:49 330 2 gusting 6 20.6
2020-May-26 16:43 327 3 gusting 6 20.6
2020-May-26 16:39 324 4 gusting 6 20.6
2020-May-26 16:33 316 4 gusting 7 20.0
2020-May-26 16:29 315 3 gusting 7 20.0
2020-May-26 16:23 333 2 gusting 6 20.6
2020-May-26 16:19 333 2 gusting 6 20.6
2020-May-26 16:13 322 1 gusting 6 20.0
2020-May-26 16:09 318 1 gusting 4 20.0
2020-May-26 16:03 315 2 gusting 3 19.4
2020-May-26 15:59 315 2 gusting 4 19.4
2020-May-26 15:53 323 2 gusting 5 19.4
2020-May-26 15:49 324 2 gusting 5 19.4
2020-May-26 15:43 313 1 gusting 4 19.4
2020-May-26 15:39 309 1 gusting 3 19.4
2020-May-26 15:33 313 2 gusting 3 19.4
2020-May-26 15:29 302 2 gusting 5 19.4
2020-May-26 15:23 281 1 gusting 5 19.4
2020-May-26 15:19 283 2 gusting 4 19.4
2020-May-26 15:13 299 2 gusting 5 19.4
2020-May-26 15:09 289 2 gusting 5 20.0
2020-May-26 15:03 343 2 gusting 5 20.0
2020-May-26 14:59 016 2 gusting 6 19.4
2020-May-26 14:53 328 2 gusting 6 19.4
2020-May-26 14:49 273 2 gusting 5 19.4
2020-May-26 14:43 276 3 gusting 5 19.4
2020-May-26 14:39 297 3 gusting 6 19.4
2020-May-26 14:33 320 3 gusting 6 19.4
2020-May-26 14:29 332 3 gusting 5 19.4
2020-May-26 14:23 319 3 gusting 6 19.4
2020-May-26 14:19 317 4 gusting 6 19.4
2020-May-26 14:13 303 4 gusting 9 19.4
2020-May-26 14:09 302 3 gusting 9 19.4
2020-May-26 14:03 320 3 gusting 6 19.4
2020-May-26 13:59 331 2 gusting 6 19.4
2020-May-26 13:53 335 3 gusting 6 19.4
2020-May-26 13:49 320 4 gusting 6 19.4
2020-May-26 13:43 310 3 gusting 7 19.4
2020-May-26 13:39 322 3 gusting 7 19.4
2020-May-26 13:33 339 4 gusting 7 19.4
2020-May-26 13:29 332 4 gusting 8 19.4
2020-May-26 13:23 328 4 gusting 8 19.4
2020-May-26 13:19 319 4 gusting 9 19.4
2020-May-26 13:13 313 4 gusting 9 19.4
2020-May-26 13:09 303 4 gusting 9 20.0
2020-May-26 13:03 284 5 gusting 8 20.0
2020-May-26 12:59 295 4 gusting 10 20.0
2020-May-26 12:53 321 4 gusting 10 20.0
2020-May-26 12:49 344 4 gusting 10 19.4
2020-May-26 12:43 331 4 gusting 10 19.4
2020-May-26 12:39 319 3 gusting 10 19.4
2020-May-26 12:33 307 2 gusting 6 19.4
2020-May-26 12:29 290 2 gusting 6 19.4
2020-May-26 12:23 318 2 gusting 6 19.4
2020-May-26 12:19 005 2 gusting 6 19.4
2020-May-26 12:13 002 3 gusting 6 19.4
2020-May-26 12:09 333 3 gusting 7 18.9
2020-May-26 12:03 332 2 gusting 7 19.4
2020-May-26 11:59 338 2 gusting 6 19.4
2020-May-26 11:53 329 3 gusting 6 18.9
2020-May-26 11:49 323 3 gusting 6 18.9
2020-May-26 11:43 318 3 gusting 6 18.9
2020-May-26 11:39 311 3 gusting 6 18.9
2020-May-26 11:33 308 4 gusting 9 18.3
2020-May-26 11:29 302 3 gusting 9 18.3
2020-May-26 11:23 319 3 gusting 6 18.3
2020-May-26 11:19 359 3 gusting 6 18.3
2020-May-26 11:13 356 2 gusting 6 18.3
2020-May-26 11:09 342 2 gusting 6 18.3
2020-May-26 11:03 319 1 gusting 6 17.8
2020-May-26 10:59 305 2 gusting 5 17.8
2020-May-26 10:53 317 2 gusting 6 17.8
2020-May-26 10:49 321 2 gusting 6 17.8
2020-May-26 10:43 317 1 gusting 6 17.8
2020-May-26 10:39 330 1 gusting 4 17.8
2020-May-26 10:33 339 2 gusting 4 17.8
2020-May-26 10:29 349 2 gusting 7 17.2
2020-May-26 10:23 001 2 gusting 7 17.2
2020-May-26 10:19 005 2 gusting 5 17.2
2020-May-26 10:13 332 2 gusting 6 17.2
2020-May-26 10:09 306 2 gusting 6 16.7
2020-May-26 10:03 283 2 gusting 6 16.7
2020-May-26 09:59 292 2 gusting 6 16.7
2020-May-26 09:53 314 3 gusting 5 16.7
2020-May-26 09:49 310 3 gusting 6 16.1
2020-May-26 09:43 311 3 gusting 6 16.1
2020-May-26 09:39 325 3 gusting 6 16.7
2020-May-26 09:33 332 3 gusting 5 16.1
2020-May-26 09:29 302 3 gusting 6 16.1
2020-May-26 09:23 299 3 gusting 6 16.1
2020-May-26 09:19 316 3 gusting 6 15.6
2020-May-26 09:13 320 1 gusting 6 15.6
2020-May-26 09:09 322 1 gusting 6 16.1
2020-May-26 09:03 327 2 gusting 5 16.1
2020-May-26 08:59 328 2 gusting 5 15.6
2020-May-26 08:53 321 2 gusting 6 15.6
2020-May-26 08:49 305 2 gusting 6 15.6
2020-May-26 08:43 294 2 gusting 6 15.6
2020-May-26 08:39 304 2 gusting 6 15.6
2020-May-26 08:33 318 3 gusting 7 15.0
2020-May-26 08:29 327 3 gusting 7 15.0
2020-May-26 08:23 316 4 gusting 6 15.0
2020-May-26 08:19 310 3 gusting 6 14.4
2020-May-26 08:13 321 2 gusting 6 14.4
2020-May-26 08:09 329 2 gusting 5 14.4
2020-May-26 08:03 324 2 gusting 4 13.9
2020-May-26 07:59 321 2 gusting 5 13.9
2020-May-26 07:53 316 2 gusting 6 13.9
2020-May-26 07:49 314 2 gusting 6 13.9
2020-May-26 07:43 320 2 gusting 6 13.9
2020-May-26 07:39 319 2 gusting 5 13.9
2020-May-26 07:33 316 2 gusting 4 13.9
2020-May-26 07:29 322 2 gusting 4 13.9
2020-May-26 07:23 330 2 gusting 5 13.3
2020-May-26 07:19 336 2 gusting 5 13.3
2020-May-26 07:13 337 2 gusting 4 13.3
2020-May-26 07:09 340 2 gusting 5 13.3
2020-May-26 07:03 336 2 gusting 5 12.8
2020-May-26 06:59 322 1 gusting 5 13.3
2020-May-26 06:53 305 1 gusting 4 13.3
2020-May-26 06:49 301 2 gusting 3 13.3
2020-May-26 06:43 298 3 gusting 4 12.8
2020-May-26 06:39 305 3 gusting 6 12.8
2020-May-26 06:33 313 2 gusting 6 12.8
2020-May-26 06:29 324 2 gusting 6 12.8
2020-May-26 06:23 340 3 gusting 6 12.8
2020-May-26 06:19 337 3 gusting 6 12.8
2020-May-26 06:13 327 3 gusting 5 12.8
2020-May-26 06:09 324 3 gusting 5 12.2
2020-May-26 06:03 327 4 gusting 6 12.2
2020-May-26 05:59 331 3 gusting 7 12.2
2020-May-26 05:53 334 3 gusting 7 12.2
2020-May-26 05:49 332 3 gusting 6 12.2
2020-May-26 05:43 337 2 gusting 6 12.8
2020-May-26 05:39 342 3 gusting 6 12.8
2020-May-26 05:33 329 3 gusting 6 12.8
2020-May-26 05:29 316 2 gusting 6 12.8
2020-May-26 05:23 284 1 gusting 5 12.8
2020-May-26 05:19 266 1 gusting 3 12.8
2020-May-26 05:13 266 1 gusting 3 12.8
2020-May-26 05:09 266 1 gusting 3 12.8
2020-May-26 05:03 264 1 gusting 3 12.8
2020-May-26 04:59 264 1 gusting 2 12.8
2020-May-26 04:53 264 1 gusting 2 12.8
2020-May-26 04:49 264 1 gusting 2 12.8
2020-May-26 04:43 264 1 gusting 3 12.8
2020-May-26 04:39 263 1 gusting 3 12.8
2020-May-26 04:33 263 1 gusting 2 12.8
2020-May-26 04:29 264 1 gusting 2 12.8
2020-May-26 04:23 264 1 gusting 2 12.8
2020-May-26 04:19 264 2 gusting 3 12.8